Orbital Elements at Epoch 2459000.5 (2020-May-31.0) TDB
Reference: JPL 15 (heliocentric ecliptic J2000)
Element | Value | Uncertainty (1-sigma) | Units |
e | .1856520192101344 | 1.3158e-07 | |
a | 2.917739489412364 | 1.7288e-08 | au |
q | 2.376055261673812 | 3.8092e-07 | au |
i | 18.55007836301855 | 1.1629e-05 | deg |
node | 228.9684561346833 | 1.4424e-05 | deg |
peri | 173.8494911268433 | 3.282e-05 | deg |
M | 325.0439944765994 | 2.1853e-05 | deg |
tp | 2459177.261425508153 (2020-Nov-23.76142551) | 0.00011024 | TDB |
period | 1820.405742307611 4.98 | 1.6179e-05 4.43e-08 | d yr |
n | .1977581105318044 | 1.7576e-09 | deg/d |
Q | 3.459423717150915 | 2.0498e-08 | au |
|
| | Orbit Determination Parameters
Additional Information
|